SWARM C

Last updated on Tue Sep 16 2025 00:03:34 GMT+0000 (Coordinated Universal Time)

1 39453U 13067C 25258.48386024 .00010760 00000+0 23535-3 0 9992 2 39453 87.3437 156.2665 0003493 88.0441 272.1216 15.43997506663727
UTC large
Height (km)
Speed (km/s)
/
Latitude / Longitude
Inclination (degrees)
Orbital Period (minutes)
Azimuth
Elevation
Range (km)
Doppler Factor

Next 0 passes for location: London (51.5072 / 0.1276)

Sorry there are no passes over London.